This is the latest recevied weather packets stored in our database for station/object KBTL-WX. If no packets are shown the sender has not sent any weather packets the latest 10 day(s).
| Time | Temp. | Humidity | Pressure | Rain* | Wind** | Luminosity | Snow |
|---|---|---|---|---|---|---|---|
| 1777413636 | 13.33° C | 69% | 979.9 hPa | 0 mm | - | - | - |
| 1777412712 | 13.33° C | 66% | 979.4 hPa | 0 mm | - | - | - |
| 1777411826 | 13.33° C | 66% | 979.4 hPa | 0 mm | - | - | - |
| 1777410912 | 13.89° C | 66% | 979.4 hPa | 0 mm | - | - | - |
| 1777410036 | 13.33° C | 66% | 979.4 hPa | 0 mm | - | - | - |
| 1777409112 | 13.33° C | 73% | 979.3 hPa | 0 mm | - | - | - |
| 1777408231 | 12.78° C | 78% | 979.1 hPa | 0 mm | - | - | - |
| 1777407312 | 12.22° C | 78% | 979 hPa | 0 mm | - | - | - |
| 1777406435 | 12.78° C | 68% | 979 hPa | 0 mm | - | - | - |
| 1777405512 | 12.22° C | 78% | 978.6 hPa | 0 mm | - | - | - |
| 1777404627 | 12.22° C | 78% | 978.6 hPa | 0 mm | - | - | - |
| 1777403713 | 12.22° C | 78% | 978.6 hPa | 0 mm | - | - | - |
| 1777402834 | 12.22° C | 78% | 978.6 hPa | 0 mm | - | - | - |
| 1777401912 | 12.22° C | 84% | 978.8 hPa | 0 mm | - | - | - |
| 1777401027 | 11.11° C | 84% | 978.4 hPa | 0 mm | - | - | - |
| 1777400112 | 10.56° C | 84% | 978.4 hPa | 0 mm | - | - | - |
| 1777399237 | 10.56° C | 84% | 978.4 hPa | 0 mm | - | - | - |
| 1777398312 | 11.11° C | 82% | 978.4 hPa | 0 mm | - | - | - |
| 1777397430 | 11.11° C | 86% | 978.1 hPa | 0 mm | - | - | - |
| 1777396512 | 11.11° C | 86% | 978.1 hPa | 0 mm | - | - | - |
| 1777395633 | 11.11° C | 86% | 978.1 hPa | 0 mm | - | - | - |
| 1777394712 | 11.67° C | 81% | 978 hPa | 0 mm | - | - | - |
| 1777393828 | 11.11° C | 79% | 977.5 hPa | 0 mm | - | - | - |
| 1777392912 | 11.67° C | 79% | 977.5 hPa | 0 mm | - | - | - |
| 1777392036 | 12.22° C | 79% | 977.5 hPa | 0 mm | - | - | - |
* Rain latest hour (hover to see other rain measurements)
** Current wind speed in m/s (hover to see current wind gust speed)